| time (UTC) | temp F | wind direction | speed knots | gust knots | rain 1hr in | rain 24hr in | rain mn in | humidity % | barometer mb |
| 20260508141555 | 76 | 208 | 1.7 | 11.3 | 0.00 | 0.00 | 0.00 | 41 | 1010.6 |
| 20260508140049 | 76 | 236 | 1.7 | 11.3 | 0.00 | 0.00 | 0.00 | 41 | 1010.9 |
| 20260508134545 | 76 | 283 | 0.0 | 4.3 | 0.00 | 0.00 | 0.00 | 41 | 1010.9 |
| 20260508133044 | 74 | 262 | 0.0 | 6.1 | 0.00 | 0.00 | 0.00 | 42 | 1011.1 |
| 20260508131536 | 75 | 321 | 0.9 | 7.0 | 0.00 | 0.00 | 0.00 | 42 | 1011.2 |
| 20260508130115 | 74 | 256 | 1.7 | 6.1 | 0.00 | 0.00 | 0.00 | 42 | 1011.4 |
| 20260508124616 | 74 | 232 | 0.0 | 5.2 | 0.00 | 0.00 | 0.00 | 42 | 1011.5 |
| 20260508123114 | 74 | 246 | 0.0 | 6.1 | 0.00 | 0.00 | 0.00 | 43 | 1011.7 |
| 20260508121613 | 73 | 246 | 2.6 | 10.4 | 0.00 | 0.00 | 0.00 | 44 | 1011.9 |
| 20260508120107 | 73 | 236 | 0.9 | 6.1 | 0.00 | 0.00 | 0.00 | 44 | 1012.0 |
| 20260508114605 | 71 | 240 | 1.7 | 8.7 | 0.00 | 0.00 | 0.00 | 47 | 1012.2 |
| 20260508113059 | 71 | 218 | 0.0 | 6.1 | 0.00 | 0.00 | 0.00 | 48 | 1012.3 |
| 20260508111552 | 71 | 203 | 2.6 | 7.0 | 0.00 | 0.00 | 0.00 | 49 | 1012.4 |
| 20260508110054 | 70 | 188 | 0.9 | 7.0 | 0.00 | 0.00 | 0.00 | 52 | 1012.4 |
| 20260508104509 | 69 | 232 | 2.6 | 7.0 | 0.00 | 0.00 | 0.00 | 53 | 1012.6 |
| 20260508103003 | 70 | 30 | 0.9 | 7.0 | 0.00 | 0.00 | 0.00 | 52 | 1012.6 |
| 20260508101523 | 69 | 163 | 1.7 | 8.7 | 0.00 | 0.00 | 0.00 | 55 | 1012.9 |
| 20260508100007 | 68 | 255 | 3.5 | 11.3 | 0.00 | 0.00 | 0.00 | 56 | 1013.1 |
| 20260508094505 | 68 | 213 | 4.3 | 10.4 | 0.00 | 0.00 | 0.00 | 56 | 1013.2 |
| 20260508093117 | 67 | 238 | 2.6 | 13.0 | 0.00 | 0.00 | 0.00 | 56 | 1013.3 |
| 20260508091615 | 66 | 221 | 1.7 | 8.7 | 0.00 | 0.00 | 0.00 | 57 | 1013.2 |
| 20260508090113 | 66 | 210 | 3.5 | 7.0 | 0.00 | 0.00 | 0.00 | 59 | 1013.2 |
| 20260508084547 | 65 | 246 | 1.7 | 6.1 | 0.00 | 0.00 | 0.00 | 61 | 1013.1 |
| 20260508083020 | 65 | 218 | 1.7 | 4.3 | 0.00 | 0.00 | 0.00 | 64 | 1013.2 |
| 20260508081511 | 64 | 246 | 2.6 | 8.7 | 0.00 | 0.00 | 0.00 | 67 | 1013.1 |
| 20260508080005 | 64 | 238 | 0.9 | 3.5 | 0.00 | 0.00 | 0.00 | 70 | 1013.1 |
| 20260508074513 | 63 | 208 | 0.0 | 2.6 | 0.00 | 0.00 | 0.00 | 71 | 1013.1 |
| 20260508073112 | 62 | 204 | 0.0 | 1.7 | 0.00 | 0.00 | 0.00 | 73 | 1013.1 |
| 20260508071617 | 61 | 203 | 0.0 | 1.7 | 0.00 | 0.00 | 0.00 | 77 | 1013.1 |
| 20260508070113 | 59 | 203 | 0.0 | 2.6 | 0.00 | 0.00 | 0.00 | 79 | 1013.0 |
| 20260508064613 | 59 | 208 | 0.0 | 3.5 | 0.00 | 0.00 | 0.00 | 79 | 1013.0 |
| 20260508063104 | 59 | 226 | 0.0 | 0.9 | 0.00 | 0.00 | 0.00 | 78 | 1012.8 |
| 20260508061609 | 59 | 188 | 0.0 | 0.9 | 0.00 | 0.00 | 0.00 | 79 | 1012.7 |
| 20260508060056 | 59 | 217 | 0.0 | 0.9 | 0.00 | 0.00 | 0.00 | 79 | 1012.5 |
| 20260508054635 | 59 | 236 | 0.0 | 1.7 | 0.00 | 0.00 | 0.00 | 79 | 1012.2 |
| 20260508053049 | 58 | 236 | 0.0 | 2.6 | 0.00 | 0.00 | 0.00 | 80 | 1012.1 |
| 20260508051547 | 58 | 247 | 0.0 | 0.9 | 0.00 | 0.00 | 0.00 | 80 | 1011.9 |
| 20260508050042 | 58 | 225 | 0.0 | 1.7 | 0.00 | 0.00 | 0.00 | 81 | 1011.4 |
| 20260508044514 | 58 | 238 | 0.0 | 1.7 | 0.00 | 0.00 | 0.00 | 82 | 1011.4 |
| 20260508043002 | 58 | 229 | 0.0 | 0.9 | 0.00 | 0.00 | 0.00 | 83 | 1011.5 |
| 20260508041617 | 58 | 200 | 0.0 | 1.7 | 0.00 | 0.00 | 0.00 | 82 | 1011.3 |
| 20260508040109 | 58 | 222 | 0.0 | 0.9 | 0.00 | 0.00 | 0.00 | 83 | 1011.5 |
| 20260508034606 | 58 | 195 | 0.0 | 1.7 | 0.00 | 0.00 | 0.00 | 82 | 1011.7 |
| 20260508033105 | 58 | 205 | 0.0 | 1.7 | 0.00 | 0.00 | 0.00 | 82 | 1011.8 |
| 20260508031605 | 58 | 198 | 0.0 | 2.6 | 0.00 | 0.00 | 0.00 | 81 | 1011.9 |
| 20260508030109 | 58 | 212 | 0.0 | 2.6 | 0.00 | 0.00 | 0.00 | 80 | 1012.0 |
| 20260508024549 | 59 | 217 | 0.0 | 1.7 | 0.00 | 0.00 | 0.00 | 80 | 1011.9 |
| 20260508023046 | 59 | 238 | 0.0 | 2.6 | 0.00 | 0.00 | 0.00 | 80 | 1011.9 |
| 20260508021543 | 59 | 212 | 0.0 | 3.5 | 0.00 | 0.00 | 0.00 | 80 | 1012.0 |
| 20260508020039 | 59 | 228 | 0.9 | 3.5 | 0.00 | 0.00 | 0.00 | 79 | 1012.0 |
| 20260508014539 | 59 | 210 | 0.0 | 2.6 | 0.00 | 0.00 | 0.00 | 78 | 1012.0 |
| 20260508013032 | 59 | 215 | 0.0 | 0.9 | 0.00 | 0.00 | 0.00 | 77 | 1012.2 |
| 20260508011533 | 59 | 207 | 0.0 | 0.9 | 0.00 | 0.00 | 0.00 | 76 | 1012.3 |
| 20260508010002 | 59 | 207 | 0.0 | 0.9 | 0.00 | 0.00 | 0.00 | 76 | 1012.4 |
| 20260508004506 | 59 | 210 | 0.0 | 1.7 | 0.00 | 0.00 | 0.00 | 76 | 1012.3 |
| 20260508003001 | 60 | 215 | 0.0 | 1.7 | 0.00 | 0.00 | 0.00 | 75 | 1012.3 |
| 20260508001619 | 60 | 214 | 0.0 | 0.9 | 0.00 | 0.00 | 0.00 | 75 | 1012.2 |
| 20260508000112 | 60 | 230 | 0.0 | 1.7 | 0.00 | 0.00 | 0.00 | 74 | 1012.4 |
| 20260507234611 | 60 | 218 | 0.0 | 1.7 | 0.00 | 0.00 | 0.00 | 75 | 1012.4 |
| 20260507233115 | 60 | 229 | 0.0 | 1.7 | 0.00 | 0.00 | 0.00 | 75 | 1012.3 |
| 20260507231609 | 60 | 217 | 0.0 | 2.6 | 0.00 | 0.00 | 0.00 | 75 | 1012.7 |
| 20260507224606 | 61 | 248 | 0.9 | 4.3 | 0.00 | 0.00 | 0.00 | 74 | 1012.9 |
| 20260507223100 | 61 | 219 | 0.0 | 2.6 | 0.00 | 0.00 | 0.00 | 73 | 1013.0 |
| 20260507221551 | 61 | 246 | 0.0 | 0.9 | 0.00 | 0.00 | 0.00 | 72 | 1013.1 |
| 20260507220049 | 62 | 238 | 0.0 | 4.3 | 0.00 | 0.00 | 0.00 | 71 | 1013.2 |
| 20260507214541 | 62 | 229 | 0.9 | 3.5 | 0.00 | 0.00 | 0.00 | 71 | 1013.2 |
| 20260507213037 | 62 | 239 | 0.0 | 2.6 | 0.00 | 0.00 | 0.00 | 69 | 1013.1 |
| 20260507211534 | 62 | 231 | 0.0 | 0.9 | 0.00 | 0.00 | 0.00 | 69 | 1012.9 |
| 20260507210006 | 62 | 230 | 0.0 | 0.9 | 0.00 | 0.00 | 0.00 | 68 | 1012.8 |
| 20260507204529 | 63 | 231 | 0.0 | 1.7 | 0.00 | 0.00 | 0.00 | 67 | 1012.5 |
| 20260507203030 | 63 | 249 | 0.0 | 2.6 | 0.00 | 0.00 | 0.00 | 65 | 1012.3 |
| 20260507201503 | 64 | 246 | 0.0 | 0.9 | 0.00 | 0.00 | 0.00 | 61 | 1012.3 |
| 20260507200113 | 65 | 207 | 0.0 | 2.6 | 0.00 | 0.00 | 0.00 | 59 | 1012.2 |
| 20260507194614 | 65 | 232 | 0.0 | 2.6 | 0.00 | 0.00 | 0.00 | 57 | 1012.0 |
| 20260507193133 | 66 | 219 | 0.0 | 6.1 | 0.00 | 0.00 | 0.00 | 56 | 1011.9 |
| 20260507191610 | 66 | 248 | 0.9 | 4.3 | 0.00 | 0.00 | 0.00 | 55 | 1011.7 |
| 20260507190100 | 67 | 259 | 0.9 | 7.8 | 0.00 | 0.00 | 0.00 | 53 | 1011.4 |
| 20260507184559 | 68 | 242 | 1.7 | 9.6 | 0.00 | 0.00 | 0.00 | 51 | 1011.1 |
| 20260507183102 | 68 | 232 | 0.9 | 7.0 | 0.00 | 0.00 | 0.00 | 50 | 1010.8 |
| 20260507181600 | 69 | 243 | 1.7 | 9.6 | 0.00 | 0.00 | 0.00 | 49 | 1010.8 |
| 20260507180059 | 70 | 96 | 0.9 | 7.8 | 0.00 | 0.00 | 0.00 | 47 | 1010.6 |
| 20260507174557 | 71 | 246 | 2.6 | 12.2 | 0.00 | 0.00 | 0.00 | 46 | 1010.5 |
| 20260507173120 | 71 | 221 | 2.6 | 8.7 | 0.00 | 0.00 | 0.00 | 46 | 1010.3 |
| 20260507171549 | 71 | 259 | 1.7 | 7.8 | 0.00 | 0.00 | 0.00 | 45 | 1010.1 |
| 20260507170010 | 72 | 259 | 2.6 | 12.2 | 0.00 | 0.00 | 0.00 | 45 | 1010.0 |
| 20260507164507 | 73 | 228 | 1.7 | 11.3 | 0.00 | 0.00 | 0.00 | 44 | 1009.9 |
| 20260507163117 | 73 | 13 | 1.7 | 11.3 | 0.00 | 0.00 | 0.00 | 43 | 1010.0 |
| 20260507161618 | 73 | 217 | 1.7 | 10.4 | 0.00 | 0.00 | 0.00 | 44 | 1010.0 |
| 20260507160120 | 73 | 249 | 4.3 | 9.6 | 0.00 | 0.00 | 0.00 | 43 | 1010.0 |
| 20260507154507 | 73 | 233 | 2.6 | 13.9 | 0.00 | 0.00 | 0.00 | 44 | 1009.9 |
| 20260507153014 | 73 | 287 | 4.3 | 13.9 | 0.00 | 0.00 | 0.00 | 45 | 1009.9 |
| 20260507151618 | 73 | 283 | 2.6 | 10.4 | 0.00 | 0.00 | 0.00 | 45 | 1010.0 |
| 20260507150114 | 73 | 280 | 3.5 | 12.2 | 0.00 | 0.00 | 0.00 | 45 | 1010.1 |
| 20260507144614 | 73 | 303 | 1.7 | 13.9 | 0.00 | 0.00 | 0.00 | 46 | 1010.2 |
| 20260507143008 | 72 | 230 | 1.7 | 9.6 | 0.00 | 0.00 | 0.00 | 47 | 1010.3 |